{"data":{"norad_id":63387,"epoch":"2026-05-25T03:58:46.714080Z","epoch_age_seconds":50899,"freshness":"FRESH","line1":"1 63387U 25063AA  26145.16581845  .00013222  00000+0  45764-3 0  9997","line2":"2 63387  53.1580  54.7252 0001095  87.4301 272.6825 15.30206490 66457","mean_motion":15.3020649,"eccentricity":0.0001095,"inclination_deg":53.158,"raan_deg":54.7252,"arg_perigee_deg":87.4301,"mean_anomaly_deg":272.6825,"bstar":0.00045764,"rev_number":6645,"period_min":94.104946581425,"perigee_km":474.44525158792,"apogee_km":475.94613144736,"semimajor_km":6853.3326915176,"source":"CELESTRAK","updated_at":"2026-05-25T13:38:19.966800Z"}}